Temperature
17 17 16 16 15 15 15 14 14 14 14 13 13 13 13 12 12 12 12 12 11 11 11 11 11 11 11 11 11 11 11 11 12 12 12 12 11 11 11 11 11 11 12
17 17 16 16 16 15 15 14 14 14 14 13 13 13 13 12 12 12 12 12 12 11 11 11 11 11 11 11 11 11 11 11 11 11 11 11 11 11 11 11 11 11 11
17 17 17 16 16 15 15 15 14 14 14 13 13 13 13 13 12 12 12 12 12 11 11 11 11 11 11 11 10 11 11 11 11 11 11 11 11 11 11 11 11 11 11
18 17 17 17 16 16 15 15 15 14 14 14 13 13 13 13 12 12 12 12 12 11 11 11 11 11 11 10 10 10 10 10 10 10 11 11 11 11 11 11 11 11 11
18 18 17 17 16 16 15 15 15 14 14 14 14 13 13 13 13 13 12 12 12 12 11 11 11 11 11 11 11 10 10 10 10 11 11 11 11 11 11 11 11 11 11
18 18 17 17 17 16 16 15 15 15 14 14 14 14 13 13 13 13 13 12 12 12 12 11 11 11 11 11 11 11 10 10 10 10 10 11 10 10 10 10 10 11 11
19 18 18 17 17 17 16 15 15 15 15 14 14 14 14 14 14 14 13 13 12 12 12 11 11 12 11 10 10 10 10 10 10 10 10 10 10 10 10 10 10 10 10
19 18 18 18 17 17 16 16 15 15 15 15 14 14 14 14 14 14 13 13 12 12 12 12 11 11 11 11 10 10 10 10 10 9 9 9 9 9 9 9 9 9 9
18 18 18 17 17 17 16 16 16 15 15 15 15 14 14 14 14 14 13 13 12 12 12 12 12 11 11 11 11 10 10 10 10 10 10 10 10 10 9 9 9 9 10
18 18 18 17 17 17 17 16 16 15 15 14 14 14 14 14 14 14 13 13 12 12 12 12 12 12 12 11 11 10 10 10 10 10 10 9 9 9 9 9 9 9 10
18 18 17 17 17 16 16 16 15 15 14 14 14 14 14 14 14 14 13 13 12 12 12 12 12 12 12 11 11 10 10 10 10 10 10 10 9 9 9 9 9 9 9
17 17 17 17 16 16 15 15 15 15 14 14 14 14 14 14 14 14 13 13 13 12 12 12 12 12 11 11 11 11 11 10 10 9 10 10 10 10 10 10 9 9 9
17 16 16 16 15 15 15 15 15 14 14 14 14 14 14 14 13 13 13 13 12 12 12 11 11 11 11 11 11 11 11 10 10 10 10 10 10 10 10 10 9 9 9
16 16 16 15 15 15 15 14 14 14 14 14 14 14 13 13 13 12 12 12 12 12 11 11 11 11 11 11 11 10 10 10 10 10 10 10 10 10 10 10 9 9 9
15 15 15 15 14 14 14 14 14 14 13 13 13 13 13 13 12 12 12 11 11 11 11 10 11 11 11 11 11 11 10 10 10 10 10 10 10 10 10 10 9 9 9
15 14 14 14 13 13 13 13 13 13 13 13 13 13 12 12 12 12 11 11 11 11 10 10 11 11 11 11 11 11 11 11 10 10 10 10 10 10 10 10 9 9 9
14 13 13 13 13 13 13 13 13 13 12 12 12 12 12 12 11 11 11 11 11 10 10 10 10 11 11 11 11 11 11 11 10 10 10 9 9 9 9 9 9 9 8
13 13 13 13 13 13 12 12 12 12 12 12 12 12 11 11 11 11 10 10 10 10 10 10 10 10 10 10 11 10 10 10 10 10 9 9 9 9 9 9 9 8 8
12 12 12 12 12 12 12 12 12 11 11 11 11 11 11 11 10 10 10 10 10 10 10 10 10 10 10 10 10 10 10 10 9 9 9 9 9 9 8 9 8 8 8
12 12 11 11 11 11 11 11 11 11 11 11 11 11 10 10 10 10 10 10 10 10 10 10 10 10 10 9 9 9 9 9 9 9 9 9 9 8 8 8 8 8 8
11 11 11 11 11 11 11 11 10 10 10 10 10 10 9 9 10 10 10 10 10 9 9 9 9 9 9 9 9 9 9 9 9 9 9 8 8 8 8 8 8 8 8
11 11 11 11 11 10 10 10 10 10 10 10 10 10 9 9 9 9 9 9 9 9 9 9 9 9 9 9 8 8 8 8 8 8 8 8 8 8 8 8 8 8 8
10 10 10 10 10 10 9 10 9 9 9 9 9 9 9 8 8 8 8 8 8 8 8 8 8 8 8 8 8 8 8 8 8 8 8 8 7 7 7 7 7 7 7
10 10 10 10 9 9 9 9 9 9 9 9 8 8 8 8 7 7 7 7 7 7 7 7 7 7 7 7 7 8 8 8 7 7 7 7 7 7 7 7 7 7 7
9 9 9 9 9 9 8 8 8 8 8 8 7 7 7 7 7 7 7 7 7 7 7 7 7 7 7 7 7 7 7 7 7 7 7 7 7 7 7 7 7 7 7
9 9 8 8 8 8 8 7 7 7 7 7 7 6 6 6 6 6 6 6 6 6 6 6 6 6 6 6 6 6 6 6 6 6 6 6 6 6 6 6 6 6 7
Wind_Speed
13 12 11 11 10 10 9 8 8 7 7 7 6 6 6 5 5 5 5 4 5 5 5 5 6 6 6 6 6 6 7 8 10 10 8 8 8 10 10 11 12 12 12
14 13 13 11 11 11 10 9 8 8 8 7 7 7 7 6 6 6 6 6 6 6 6 6 7 6 6 7 7 7 7 8 10 12 11 10 10 9 10 10 12 12 12
15 14 13 13 12 11 10 9 9 9 8 8 8 8 7 7 7 7 7 6 7 7 7 7 7 7 8 7 7 8 8 8 9 11 11 9 10 9 10 11 12 10 13
15 15 14 14 13 12 11 10 10 9 9 9 9 8 8 8 8 7 7 7 7 8 8 8 8 8 9 8 8 9 9 9 10 10 11 10 9 9 9 10 10 8 9
16 16 15 14 13 12 11 11 10 10 10 9 9 9 9 8 8 8 7 8 8 8 8 9 9 8 7 8 9 9 9 9 10 10 10 10 9 8 9 9 10 10 10
16 16 14 14 13 13 12 11 11 11 10 10 10 10 10 8 5 4 8 9 9 9 9 9 9 10 11 14 14 13 12 12 12 11 11 11 11 11 10 10 11 11 11
16 15 14 14 13 13 13 12 12 12 11 11 11 11 10 8 9 10 10 10 11 10 10 10 10 9 8 11 13 16 16 18 17 14 14 14 14 12 12 13 12 13 13
16 15 14 14 14 13 12 12 12 11 11 11 11 11 10 10 12 12 11 12 12 12 12 12 12 12 11 10 12 12 13 13 14 15 14 15 15 13 12 13 14 14 15
15 14 14 14 13 13 13 13 12 11 11 11 11 11 11 10 12 13 12 10 11 13 13 13 13 13 10 9 12 14 14 14 14 18 18 17 17 16 14 12 14 13 14
14 13 12 12 12 12 12 11 10 10 11 11 11 11 11 11 11 14 13 10 11 11 12 13 14 16 12 11 13 14 15 14 13 12 13 16 18 18 19 16 15 14 14
11 11 11 11 11 11 10 9 9 9 10 10 10 10 11 12 11 14 15 11 12 12 12 12 11 14 16 15 14 14 15 14 14 14 14 14 13 13 13 14 14 14 15
8 9 9 9 9 9 9 9 9 9 10 10 10 11 10 11 12 12 16 17 15 14 13 13 11 9 14 15 14 15 15 12 13 14 14 13 12 12 11 12 12 14 15
7 8 8 8 8 8 9 9 8 9 9 9 9 9 9 9 9 14 16 17 17 14 14 14 14 8 10 13 18 18 14 13 14 15 14 14 13 12 11 11 12 14 16
7 6 6 6 7 7 6 7 8 8 9 9 8 9 9 9 9 8 8 10 14 14 14 15 16 17 16 16 14 13 14 14 14 14 14 14 13 12 12 12 12 11 12
4 4 4 4 4 5 6 6 7 7 6 7 8 8 9 10 7 5 7 9 10 8 8 11 13 13 13 13 13 13 13 13 14 14 14 14 13 13 12 11 11 11 12
3 2 2 2 2 4 5 6 8 9 7 10 11 10 10 10 10 9 10 11 11 7 8 13 14 14 14 14 13 13 12 13 13 13 13 13 13 13 12 11 11 11 12
2 1 1 2 2 4 4 5 6 7 12 15 15 15 16 15 14 13 13 11 11 8 10 14 15 15 14 14 14 14 13 13 12 13 13 13 12 13 12 12 11 12 13
0 1 1 2 3 4 5 6 7 7 8 8 11 16 17 17 17 16 13 9 10 10 12 14 14 14 14 14 14 13 13 12 12 12 12 12 12 12 12 12 12 13 13
2 2 2 3 4 4 5 6 7 8 9 10 10 9 11 13 14 15 11 10 13 13 13 13 13 13 13 13 13 13 13 12 13 12 12 13 12 12 12 13 13 14 14
1 1 2 4 4 5 5 6 7 8 9 10 10 11 8 8 10 10 9 11 12 13 13 13 13 13 13 13 13 13 13 12 13 12 12 12 12 12 13 14 13 13 12
4 2 2 4 5 5 6 7 8 8 9 10 10 9 7 11 12 13 12 11 11 12 12 12 13 14 13 12 12 12 14 13 12 12 11 11 12 12 12 12 13 13 12
5 5 5 5 6 6 7 8 9 9 10 12 11 9 6 10 12 12 11 11 12 11 12 12 12 13 12 12 12 11 12 12 12 11 11 11 11 11 11 11 11 11 12
6 7 7 6 7 6 8 9 9 10 11 11 11 11 10 10 11 11 12 12 12 12 12 11 12 12 12 11 11 11 12 12 11 10 10 10 10 10 10 11 13 14 13
8 8 8 8 8 9 9 10 10 11 11 11 11 11 11 11 12 12 12 12 12 12 12 12 12 15 16 13 11 11 10 9 9 9 11 11 11 11 10 11 12 14 13
8 8 9 9 9 10 10 11 11 11 11 11 11 11 12 12 12 12 12 11 13 13 14 13 12 12 14 15 13 11 5 4 6 8 10 10 12 13 12 13 13 13 13
8 9 9 9 9 9 10 11 11 12 12 12 12 11 11 11 12 12 12 11 11 12 13 12 13 14 14 13 12 7 4 5 5 7 9 10 12 12 12 12 14 13 13
Wind_Direction
187 187 183 183 182 183 187 186 185 189 188 195 200 205 209 215 219 227 247 234 242 249 250 250 256 276 280 283 275 275 276 279 284 290 292 293 289 287 295 293 286 281 273
187 187 187 186 186 190 191 191 191 194 199 203 207 212 218 221 224 231 240 240 244 249 252 257 260 258 258 270 278 277 278 280 279 287 292 290 285 284 282 283 284 280 281
188 189 189 190 192 196 195 194 197 200 205 208 212 219 224 226 228 232 239 245 248 252 255 257 259 261 262 268 272 276 279 277 277 282 285 288 284 281 286 280 278 276 277
190 192 192 194 196 198 199 197 200 204 207 211 215 222 228 231 231 233 236 242 249 252 254 256 258 259 259 265 265 265 271 279 276 274 280 284 281 279 277 280 281 274 276
192 195 195 196 196 199 200 201 203 207 212 213 218 223 228 231 233 234 240 243 247 253 254 252 253 254 273 266 273 280 279 275 279 279 281 284 285 291 287 289 288 289 280
194 196 195 195 195 198 200 202 204 209 215 216 221 226 229 234 162 190 248 257 253 254 257 258 257 237 233 228 242 255 266 269 275 282 283 285 288 288 288 287 287 286 286
195 195 194 196 199 201 203 204 207 211 214 219 225 229 234 226 179 200 222 252 258 258 259 260 264 264 243 253 235 226 239 241 246 262 274 279 285 286 290 286 282 285 287
195 197 197 198 202 203 207 210 212 215 217 221 227 231 235 227 190 205 214 238 253 256 255 256 259 266 262 259 266 263 261 253 240 240 255 265 272 280 281 279 281 278 273
197 199 199 200 202 202 207 212 215 218 222 225 228 232 236 233 199 203 214 245 248 252 255 255 256 260 249 227 254 264 267 267 254 236 242 255 267 271 269 272 272 272 274
196 196 196 198 203 206 209 212 215 220 228 233 234 235 238 242 209 200 209 245 254 258 256 253 243 240 248 216 246 259 265 269 275 270 246 246 253 252 239 242 257 265 272
190 186 189 194 202 208 207 207 212 220 229 236 241 240 241 243 225 203 207 238 256 261 265 264 261 207 217 221 233 252 261 271 276 274 270 265 260 256 250 239 240 251 264
178 180 186 190 200 202 203 205 211 220 227 233 239 247 246 240 237 222 210 223 247 259 264 269 272 202 207 218 229 244 250 257 264 267 267 266 266 264 260 256 250 249 254
170 180 186 188 198 204 205 207 212 218 233 238 240 247 252 250 236 218 216 222 230 245 261 269 279 260 230 237 237 237 240 247 254 259 263 265 265 265 267 264 257 252 252
163 170 177 186 195 200 214 219 224 229 237 244 249 254 259 258 259 252 240 234 227 238 255 260 250 247 246 259 262 240 238 245 251 258 263 265 266 263 259 260 260 258 257
160 177 187 196 210 214 217 229 233 237 245 253 260 264 268 270 276 297 281 274 276 284 288 269 267 263 256 252 251 251 250 247 245 250 257 262 264 264 263 259 258 262 262
152 172 198 207 212 237 242 243 227 240 235 237 247 261 272 271 286 282 271 271 276 281 273 265 266 267 265 266 265 263 257 251 251 253 256 258 260 261 263 261 257 254 257
123 156 228 242 239 249 259 263 265 246 231 236 238 239 245 263 271 269 267 269 262 233 247 260 264 268 269 269 267 266 265 263 260 259 259 258 257 259 261 261 259 256 256
190 175 253 273 274 270 270 273 275 281 281 275 249 233 235 243 251 255 255 260 258 234 250 260 265 267 269 270 270 271 270 269 264 261 260 260 257 257 260 260 259 259 260
333 335 327 309 294 290 288 287 288 289 287 288 289 269 232 240 243 246 234 248 262 265 264 265 267 268 270 271 271 270 269 268 266 263 261 259 256 255 258 259 258 257 258
343 54 315 309 304 301 298 296 295 292 289 289 289 291 290 280 278 270 254 258 265 270 272 273 274 274 273 273 272 271 269 266 265 261 259 258 257 257 259 260 261 262 260
333 329 254 288 302 305 302 300 299 296 295 294 293 298 304 290 285 283 281 277 275 276 277 279 279 277 275 271 269 268 269 269 268 267 264 262 262 262 262 263 263 262 262
318 312 307 307 306 305 307 301 297 296 295 295 296 293 268 278 285 287 289 288 285 285 285 282 281 281 280 278 274 269 268 268 268 268 267 268 268 268 267 265 264 265 265
306 306 303 302 300 298 289 292 296 297 297 297 296 296 294 293 292 291 291 292 293 290 288 288 286 283 282 279 274 272 272 272 274 278 276 275 276 274 272 268 267 270 269
304 305 306 306 304 302 302 301 299 298 299 300 301 299 296 293 291 292 294 296 296 293 290 290 287 286 287 285 282 276 276 283 286 283 281 279 276 274 270 267 269 271 271
304 305 305 305 305 304 303 302 302 303 302 300 298 297 298 298 297 297 298 298 298 296 296 295 292 290 291 290 288 284 301 311 295 293 284 277 274 272 271 271 270 273 271
303 303 303 304 305 306 305 305 304 304 302 302 301 302 301 302 303 303 302 300 301 300 299 299 298 298 296 292 293 301 305 291 281 278 277 275 273 271 272 270 273 272 273
Height
1541 1543 1546 1548 1549 1551 1552 1553 1554 1555 1556 1557 1558 1558 1559 1559 1559 1559 1560 1559 1559 1559 1559 1559 1558 1557 1558 1558 1557 1556 1555 1554 1552 1550 1549 1548 1545 1543 1542 1540 1539 1538 1537
1538 1540 1543 1545 1547 1548 1550 1551 1552 1553 1554 1555 1555 1556 1557 1557 1557 1557 1557 1557 1557 1557 1557 1556 1555 1555 1554 1554 1553 1553 1552 1550 1549 1547 1545 1544 1542 1539 1537 1535 1535 1534 1533
1535 1537 1540 1542 1544 1545 1547 1548 1549 1550 1551 1552 1553 1554 1554 1554 1554 1554 1554 1554 1554 1554 1553 1553 1552 1552 1551 1551 1549 1549 1548 1547 1545 1543 1541 1539 1537 1536 1533 1532 1530 1528 1527
1531 1533 1536 1538 1540 1542 1544 1545 1546 1547 1548 1549 1550 1551 1551 1551 1551 1551 1551 1551 1551 1550 1550 1549 1548 1548 1547 1546 1545 1544 1543 1542 1541 1539 1537 1535 1534 1532 1530 1528 1526 1525 1523
1527 1529 1532 1534 1537 1539 1540 1542 1543 1544 1545 1546 1547 1547 1548 1548 1548 1549 1548 1548 1547 1547 1546 1545 1545 1543 1542 1542 1541 1541 1539 1538 1537 1535 1533 1531 1530 1528 1527 1524 1523 1520 1519
1522 1525 1528 1530 1532 1534 1536 1538 1539 1540 1541 1542 1543 1544 1544 1545 1544 1544 1544 1544 1544 1543 1542 1541 1540 1538 1537 1536 1535 1535 1534 1533 1532 1530 1529 1527 1525 1524 1522 1520 1518 1516 1514
1517 1520 1523 1525 1528 1530 1532 1533 1535 1536 1537 1538 1539 1539 1540 1540 1540 1540 1539 1539 1539 1538 1538 1537 1536 1536 1533 1532 1530 1528 1527 1526 1525 1524 1523 1521 1520 1519 1517 1515 1513 1511 1508
1512 1515 1517 1520 1523 1525 1527 1529 1530 1532 1533 1533 1534 1535 1535 1535 1535 1535 1534 1534 1533 1533 1532 1531 1530 1529 1529 1527 1526 1525 1523 1521 1520 1517 1516 1514 1514 1512 1510 1509 1507 1504 1502
1506 1509 1512 1515 1518 1520 1522 1524 1526 1527 1528 1529 1529 1529 1529 1530 1530 1530 1529 1528 1528 1528 1527 1526 1524 1523 1522 1521 1520 1518 1516 1515 1514 1512 1510 1508 1506 1505 1504 1502 1501 1499 1496
1502 1505 1508 1510 1513 1515 1517 1519 1520 1522 1523 1524 1524 1524 1524 1524 1524 1524 1524 1523 1523 1523 1521 1520 1518 1517 1516 1515 1513 1512 1510 1509 1508 1506 1503 1500 1498 1497 1495 1494 1493 1493 1490
1497 1500 1503 1505 1507 1509 1511 1513 1515 1516 1517 1518 1519 1519 1518 1518 1518 1517 1517 1517 1517 1516 1516 1514 1513 1510 1509 1508 1506 1505 1503 1502 1501 1499 1497 1495 1493 1491 1489 1487 1485 1484 1483
1493 1496 1498 1500 1503 1505 1506 1508 1509 1510 1511 1512 1512 1512 1512 1512 1511 1510 1510 1510 1510 1509 1508 1508 1507 1504 1502 1500 1499 1497 1496 1495 1493 1492 1490 1488 1486 1484 1483 1481 1479 1476 1474
1490 1492 1494 1496 1498 1500 1501 1502 1503 1504 1505 1506 1506 1506 1506 1506 1505 1504 1503 1503 1502 1501 1500 1499 1498 1496 1494 1492 1490 1489 1488 1486 1485 1484 1482 1480 1478 1476 1475 1472 1470 1468 1465
1487 1489 1490 1492 1493 1495 1496 1497 1498 1499 1500 1500 1500 1499 1499 1499 1499 1498 1496 1495 1494 1493 1491 1490 1488 1487 1485 1483 1482 1480 1478 1477 1476 1475 1473 1472 1470 1468 1466 1464 1463 1461 1459
1485 1487 1488 1489 1490 1490 1491 1492 1493 1493 1494 1494 1494 1493 1493 1492 1492 1491 1490 1489 1488 1487 1484 1483 1481 1480 1478 1475 1474 1472 1471 1469 1467 1465 1464 1463 1461 1460 1458 1457 1455 1453 1451
1483 1484 1485 1486 1486 1487 1487 1488 1487 1488 1487 1487 1486 1486 1484 1484 1484 1483 1482 1481 1480 1478 1476 1474 1473 1471 1469 1468 1466 1464 1462 1461 1459 1457 1455 1454 1453 1451 1450 1449 1447 1445 1443
1481 1482 1483 1483 1483 1483 1483 1483 1483 1482 1481 1480 1479 1478 1477 1476 1476 1475 1473 1472 1471 1469 1467 1466 1464 1463 1461 1459 1457 1455 1453 1452 1450 1448 1447 1445 1444 1443 1442 1440 1439 1437 1435
1479 1480 1480 1480 1480 1480 1480 1479 1478 1477 1476 1475 1474 1472 1470 1469 1468 1466 1465 1464 1462 1461 1459 1457 1456 1454 1452 1450 1448 1446 1445 1443 1441 1440 1438 1437 1435 1434 1433 1432 1431 1429 1428
1478 1478 1477 1477 1477 1476 1475 1474 1474 1472 1471 1469 1468 1466 1464 1462 1460 1459 1457 1456 1454 1453 1451 1449 1447 1446 1444 1442 1440 1438 1436 1434 1433 1431 1429 1428 1427 1426 1424 1423 1422 1421 1420
1477 1476 1475 1474 1473 1472 1471 1470 1469 1468 1466 1464 1462 1461 1459 1457 1454 1453 1451 1449 1447 1446 1444 1442 1440 1438 1436 1433 1431 1429 1427 1425 1424 1422 1421 1420 1419 1418 1417 1415 1414 1413 1412
1476 1474 1472 1472 1471 1469 1468 1466 1465 1463 1461 1459 1457 1455 1452 1451 1449 1447 1445 1443 1440 1438 1436 1434 1432 1430 1428 1425 1423 1421 1419 1418 1416 1415 1413 1412 1411 1410 1409 1408 1406 1405 1404
1473 1472 1471 1469 1468 1466 1464 1463 1461 1459 1456 1454 1451 1449 1446 1444 1442 1440 1438 1436 1434 1431 1429 1427 1424 1422 1420 1418 1416 1413 1411 1410 1409 1408 1406 1405 1404 1402 1401 1400 1399 1397 1396
1471 1469 1468 1466 1464 1462 1460 1458 1456 1454 1451 1448 1446 1443 1441 1439 1436 1434 1431 1429 1426 1424 1422 1419 1416 1414 1412 1410 1408 1406 1405 1403 1402 1401 1400 1398 1397 1395 1394 1393 1392 1390 1389
1468 1466 1464 1462 1460 1458 1456 1453 1451 1448 1446 1443 1440 1438 1435 1432 1430 1427 1424 1422 1419 1416 1414 1412 1409 1407 1405 1403 1401 1399 1398 1396 1395 1394 1393 1391 1390 1388 1387 1386 1384 1383 1382
1465 1462 1460 1458 1456 1453 1451 1448 1446 1443 1440 1437 1435 1432 1429 1426 1423 1421 1418 1415 1412 1409 1407 1404 1402 1399 1397 1395 1393 1392 1390 1389 1388 1386 1385 1384 1383 1381 1380 1379 1377 1376 1374
1460 1458 1456 1454 1451 1448 1446 1443 1440 1437 1434 1431 1429 1426 1423 1420 1417 1414 1411 1408 1406 1403 1400 1397 1395 1392 1390 1388 1386 1384 1383 1382 1380 1379 1378 1377 1376 1375 1374 1372 1371 1369 1367